| time (UTC) | temp F | wind direction | speed MPH | gust MPH | rain 1hr in | rain 24hr in | rain mn in | humidity % | barometer mb |
| 20260509124003 | 49 | 236 | 3.0 | 9.0 | 0.04 | 0.10 | 0.09 | 92 | 1010.5 |
| 20260509123504 | 49 | 246 | 4.0 | 17.0 | 0.03 | 0.09 | 0.08 | 92 | 1010.4 |
| 20260509123003 | 49 | 256 | 2.0 | 7.0 | 0.04 | 0.09 | 0.08 | 92 | 1010.5 |
| 20260509122504 | 49 | 223 | 5.0 | 12.0 | 0.03 | 0.08 | 0.07 | 92 | 1010.5 |
| 20260509122003 | 49 | 240 | 3.0 | 12.0 | 0.03 | 0.08 | 0.07 | 92 | 1010.5 |
| 20260509121504 | 49 | 242 | 5.0 | 13.0 | 0.03 | 0.08 | 0.07 | 92 | 1010.5 |
| 20260509120003 | 49 | 240 | 2.0 | 9.0 | 0.03 | 0.08 | 0.07 | 91 | 1010.6 |
| 20260509115503 | 49 | 228 | 2.0 | 10.0 | 0.02 | 0.07 | 0.06 | 91 | 1010.5 |
| 20260509115003 | 49 | 208 | 1.0 | 12.0 | 0.02 | 0.07 | 0.06 | 91 | 1010.5 |
| 20260509114504 | 48 | 221 | 5.0 | 14.0 | 0.01 | 0.06 | 0.05 | 91 | 1010.5 |
| 20260509114003 | 48 | 189 | 3.0 | 9.0 | 0.02 | 0.06 | 0.05 | 91 | 1010.6 |
| 20260509113503 | 48 | 198 | 5.0 | 13.0 | 0.02 | 0.06 | 0.05 | 91 | 1010.5 |
| 20260509113004 | 48 | 206 | 3.0 | 12.0 | 0.01 | 0.05 | 0.04 | 90 | 1010.7 |
| 20260509112504 | 48 | 229 | 2.0 | 7.0 | 0.01 | 0.05 | 0.04 | 90 | 1010.7 |
| 20260509112003 | 48 | 188 | 2.0 | 8.0 | 0.01 | 0.05 | 0.04 | 90 | 1010.6 |
| 20260509111504 | 48 | 203 | 3.0 | 12.0 | 0.01 | 0.05 | 0.04 | 90 | 1010.6 |
| 20260509111003 | 48 | 210 | 3.0 | 10.0 | 0.02 | 0.05 | 0.04 | 91 | 1010.6 |
| 20260509110504 | 48 | 196 | 4.0 | 12.0 | 0.02 | 0.05 | 0.04 | 91 | 1010.6 |
| 20260509110003 | 48 | 200 | 2.0 | 7.0 | 0.02 | 0.05 | 0.04 | 91 | 1010.6 |
| 20260509105503 | 48 | 160 | 4.0 | 9.0 | 0.02 | 0.05 | 0.04 | 91 | 1010.7 |
| 20260509105003 | 48 | 225 | 3.0 | 12.0 | 0.03 | 0.05 | 0.04 | 90 | 1010.6 |
| 20260509104503 | 48 | 243 | 3.0 | 16.0 | 0.03 | 0.05 | 0.04 | 90 | 1010.7 |
| 20260509104004 | 48 | 188 | 3.0 | 10.0 | 0.02 | 0.04 | 0.03 | 90 | 1010.7 |
| 20260509103504 | 48 | 190 | 3.0 | 10.0 | 0.02 | 0.04 | 0.03 | 90 | 1010.8 |
| 20260509103003 | 48 | 198 | 2.0 | 10.0 | 0.02 | 0.04 | 0.03 | 90 | 1010.6 |
| 20260509102504 | 48 | 225 | 5.0 | 9.0 | 0.02 | 0.04 | 0.03 | 89 | 1010.7 |
| 20260509102004 | 48 | 159 | 4.0 | 14.0 | 0.03 | 0.04 | 0.03 | 89 | 1010.8 |
| 20260509101504 | 48 | 254 | 5.0 | 12.0 | 0.03 | 0.04 | 0.03 | 88 | 1010.9 |
| 20260509101003 | 49 | 241 | 3.0 | 10.0 | 0.02 | 0.03 | 0.02 | 87 | 1011.0 |
| 20260509100504 | 49 | 250 | 2.0 | 9.0 | 0.02 | 0.03 | 0.02 | 87 | 1011.0 |
| 20260509100004 | 49 | 275 | 2.0 | 9.0 | 0.02 | 0.03 | 0.02 | 86 | 1011.0 |
| 20260509094503 | 49 | 242 | 2.0 | 13.0 | 0.01 | 0.02 | 0.01 | 84 | 1010.9 |
| 20260509093503 | 49 | 236 | 3.0 | 12.0 | 0.01 | 0.02 | 0.01 | 83 | 1011.0 |
| 20260509093003 | 49 | 211 | 3.0 | 10.0 | 0.01 | 0.02 | 0.01 | 82 | 1010.9 |
| 20260509092504 | 49 | 235 | 2.0 | 9.0 | 0.01 | 0.02 | 0.01 | 82 | 1010.8 |
| 20260509092004 | 49 | 232 | 3.0 | 12.0 | 0.00 | 0.01 | 0.00 | 83 | 1010.8 |
| 20260509091503 | 49 | 197 | 2.0 | 12.0 | 0.00 | 0.01 | 0.00 | 84 | 1010.8 |
| 20260509091004 | 48 | 198 | 3.0 | 12.0 | 0.00 | 0.01 | 0.00 | 85 | 1010.5 |
| 20260509090504 | 48 | 187 | 1.0 | 13.0 | 0.00 | 0.01 | 0.00 | 86 | 1010.5 |
| 20260509090004 | 48 | 236 | 2.0 | 6.0 | 0.00 | 0.01 | 0.00 | 87 | 1010.4 |
| 20260509085004 | 48 | 278 | 3.0 | 8.0 | 0.00 | 0.01 | 0.00 | 88 | 1010.2 |
| 20260509084503 | 48 | 167 | 3.0 | 9.0 | 0.00 | 0.01 | 0.00 | 88 | 1010.3 |
| 20260509084004 | 48 | 278 | 1.0 | 7.0 | 0.00 | 0.01 | 0.00 | 89 | 1010.1 |
| 20260509083503 | 48 | 170 | 2.0 | 6.0 | 0.00 | 0.01 | 0.00 | 89 | 1010.2 |
| 20260509083004 | 48 | 201 | 0.0 | 2.0 | 0.00 | 0.01 | 0.00 | 89 | 1010.1 |
| 20260509082004 | 48 | 176 | 1.0 | 5.0 | 0.00 | 0.01 | 0.00 | 88 | 1010.1 |
| 20260509081503 | 48 | 165 | 1.0 | 5.0 | 0.00 | 0.01 | 0.00 | 89 | 1010.1 |
| 20260509081004 | 48 | 168 | 3.0 | 6.0 | 0.00 | 0.01 | 0.00 | 89 | 1010.1 |
| 20260509080504 | 48 | 148 | 2.0 | 5.0 | 0.00 | 0.01 | 0.00 | 89 | 1010.1 |
| 20260509075504 | 48 | 151 | 3.0 | 5.0 | 0.00 | 0.01 | 0.00 | 89 | 1009.9 |
| 20260509074503 | 47 | 156 | 3.0 | 6.0 | 0.00 | 0.01 | 0.00 | 89 | 1010.0 |
| 20260509074004 | 47 | 152 | 3.0 | 6.0 | 0.00 | 0.01 | 0.00 | 90 | 1009.9 |
| 20260509073504 | 47 | 160 | 3.0 | 9.0 | 0.00 | 0.01 | 0.00 | 90 | 1009.9 |
| 20260509073003 | 47 | 140 | 3.0 | 7.0 | 0.00 | 0.01 | 0.00 | 90 | 1010.1 |
| 20260509072504 | 47 | 140 | 3.0 | 5.0 | 0.00 | 0.01 | 0.00 | 90 | 1010.1 |
| 20260509072004 | 46 | 136 | 2.0 | 6.0 | 0.00 | 0.01 | 0.00 | 90 | 1010.1 |
| 20260509071004 | 46 | 135 | 3.0 | 8.0 | 0.00 | 0.01 | 0.00 | 90 | 1010.0 |
| 20260509070003 | 46 | 123 | 2.0 | 5.0 | 0.00 | 0.01 | 0.00 | 90 | 1010.3 |
| 20260509065503 | 46 | 136 | 2.0 | 5.0 | 0.00 | 0.01 | 0.00 | 90 | 1010.4 |
| 20260509065004 | 46 | 142 | 2.0 | 3.0 | 0.00 | 0.01 | 0.00 | 90 | 1010.5 |
| 20260509064503 | 46 | 157 | 0.0 | 1.0 | 0.00 | 0.01 | 0.00 | 90 | 1010.6 |
| 20260509064004 | 46 | 157 | 1.0 | 2.0 | 0.00 | 0.01 | 0.00 | 90 | 1010.8 |
| 20260509063503 | 46 | 160 | 2.0 | 3.0 | 0.00 | 0.01 | 0.00 | 90 | 1010.9 |
| 20260509062504 | 46 | 160 | 1.0 | 3.0 | 0.00 | 0.01 | 0.00 | 91 | 1011.2 |
| 20260509062004 | 46 | 166 | 3.0 | 7.0 | 0.00 | 0.01 | 0.00 | 91 | 1011.1 |
| 20260509061003 | 46 | 134 | 3.0 | 5.0 | 0.00 | 0.01 | 0.00 | 91 | 1011.2 |
| 20260509060503 | 46 | 130 | 3.0 | 6.0 | 0.00 | 0.01 | 0.00 | 91 | 1011.2 |
| 20260509060003 | 46 | 136 | 3.0 | 5.0 | 0.00 | 0.01 | 0.00 | 91 | 1011.3 |
| 20260509055503 | 46 | 132 | 2.0 | 7.0 | 0.00 | 0.01 | 0.00 | 91 | 1011.4 |
| 20260509055003 | 46 | 134 | 1.0 | 3.0 | 0.00 | 0.01 | 0.00 | 91 | 1011.6 |
| 20260509054504 | 46 | 117 | 2.0 | 3.0 | 0.00 | 0.01 | 0.00 | 91 | 1011.6 |
| 20260509054003 | 46 | 122 | 2.0 | 7.0 | 0.00 | 0.01 | 0.00 | 91 | 1011.7 |
| 20260509053503 | 47 | 138 | 3.0 | 5.0 | 0.00 | 0.01 | 0.00 | 91 | 1011.8 |
| 20260509053003 | 47 | 131 | 3.0 | 8.0 | 0.00 | 0.01 | 0.00 | 91 | 1011.8 |
| 20260509052504 | 47 | 139 | 3.0 | 7.0 | 0.00 | 0.01 | 0.00 | 91 | 1011.8 |
| 20260509052003 | 47 | 140 | 3.0 | 6.0 | 0.00 | 0.01 | 0.00 | 90 | 1011.8 |
| 20260509051504 | 47 | 128 | 2.0 | 3.0 | 0.00 | 0.01 | 0.00 | 90 | 1011.8 |
| 20260509051003 | 47 | 122 | 2.0 | 3.0 | 0.00 | 0.01 | 0.00 | 90 | 1011.8 |
| 20260509050504 | 47 | 127 | 2.0 | 5.0 | 0.00 | 0.01 | 0.00 | 90 | 1011.9 |
| 20260509050003 | 47 | 135 | 2.0 | 6.0 | 0.00 | 0.01 | 0.00 | 90 | 1011.9 |
| 20260509045504 | 47 | 115 | 3.0 | 6.0 | 0.00 | 0.01 | 0.00 | 90 | 1011.9 |
| 20260509045004 | 47 | 112 | 2.0 | 6.0 | 0.00 | 0.01 | 0.00 | 90 | 1012.0 |
| 20260509044003 | 47 | 100 | 2.0 | 3.0 | 0.00 | 0.01 | 0.00 | 90 | 1012.1 |
| 20260509043504 | 47 | 106 | 1.0 | 3.0 | 0.00 | 0.01 | 0.00 | 90 | 1012.1 |
| 20260509043003 | 47 | 120 | 2.0 | 3.0 | 0.00 | 0.01 | 0.00 | 90 | 1012.2 |
| 20260509042504 | 47 | 118 | 2.0 | 3.0 | 0.00 | 0.01 | 0.00 | 90 | 1012.4 |
| 20260509042005 | 47 | 103 | 1.0 | 2.0 | 0.00 | 0.01 | 0.00 | 90 | 1012.4 |
| 20260509041504 | 47 | 101 | 1.0 | 3.0 | 0.00 | 0.01 | 0.00 | 90 | 1012.6 |
| 20260509041003 | 47 | 51 | 1.0 | 2.0 | 0.00 | 0.01 | 0.00 | 90 | 1012.6 |
| 20260509040504 | 47 | 341 | 1.0 | 2.0 | 0.00 | 0.01 | 0.00 | 89 | 1012.7 |
| 20260509040003 | 47 | 340 | 1.0 | 2.0 | 0.00 | 0.01 | 0.00 | 89 | 1012.7 |
| 20260509035504 | 47 | 338 | 0.0 | 1.0 | 0.00 | 0.01 | 0.01 | 89 | 1012.6 |
| 20260509035003 | 47 | 338 | 1.0 | 3.0 | 0.00 | 0.01 | 0.01 | 89 | 1012.6 |
| 20260509034504 | 47 | 338 | 0.0 | 3.0 | 0.00 | 0.01 | 0.01 | 89 | 1012.6 |
| 20260509034004 | 47 | 339 | 3.0 | 5.0 | 0.00 | 0.01 | 0.01 | 88 | 1012.5 |
| 20260509033004 | 48 | 345 | 0.0 | 3.0 | 0.00 | 0.01 | 0.01 | 87 | 1012.4 |
| 20260509032504 | 48 | 0 | 1.0 | 3.0 | 0.00 | 0.01 | 0.01 | 87 | 1012.4 |
| 20260509032003 | 48 | 328 | 2.0 | 5.0 | 0.00 | 0.01 | 0.01 | 86 | 1012.5 |
| 20260509031503 | 48 | 0 | 2.0 | 3.0 | 0.00 | 0.01 | 0.01 | 86 | 1012.5 |
| 20260509031004 | 48 | 342 | 2.0 | 3.0 | 0.00 | 0.01 | 0.01 | 85 | 1012.5 |
| 20260509030004 | 48 | 315 | 1.0 | 3.0 | 0.00 | 0.01 | 0.01 | 86 | 1012.4 |
| 20260509025503 | 49 | 167 | 0.0 | 1.0 | 0.00 | 0.01 | 0.01 | 86 | 1012.4 |
| 20260509025003 | 49 | 167 | 0.0 | 0.0 | 0.00 | 0.01 | 0.01 | 86 | 1012.5 |
| 20260509024004 | 49 | 167 | 0.0 | 0.0 | 0.00 | 0.01 | 0.01 | 85 | 1012.5 |
| 20260509023504 | 49 | 167 | 2.0 | 3.0 | 0.00 | 0.01 | 0.01 | 85 | 1012.4 |
| 20260509023004 | 49 | 146 | 1.0 | 3.0 | 0.00 | 0.01 | 0.01 | 85 | 1012.1 |
| 20260509022503 | 49 | 146 | 0.0 | 2.0 | 0.00 | 0.01 | 0.01 | 85 | 1012.1 |
| 20260509022004 | 49 | 146 | 0.0 | 1.0 | 0.00 | 0.01 | 0.01 | 84 | 1012.1 |
| 20260509021503 | 49 | 146 | 1.0 | 3.0 | 0.00 | 0.01 | 0.01 | 84 | 1012.1 |
| 20260509021004 | 49 | 135 | 2.0 | 5.0 | 0.00 | 0.01 | 0.01 | 84 | 1012.0 |
| 20260509020504 | 49 | 153 | 3.0 | 7.0 | 0.00 | 0.01 | 0.01 | 84 | 1012.0 |
| 20260509015503 | 48 | 144 | 3.0 | 7.0 | 0.00 | 0.01 | 0.01 | 85 | 1011.9 |
| 20260509015004 | 48 | 143 | 3.0 | 6.0 | 0.00 | 0.01 | 0.01 | 85 | 1011.9 |
| 20260509014503 | 48 | 138 | 3.0 | 7.0 | 0.00 | 0.01 | 0.01 | 86 | 1011.9 |
| 20260509014004 | 48 | 133 | 5.0 | 8.0 | 0.00 | 0.01 | 0.01 | 86 | 1011.9 |
| 20260509013504 | 48 | 129 | 4.0 | 8.0 | 0.00 | 0.01 | 0.01 | 85 | 1012.0 |
| 20260509012504 | 48 | 178 | 2.0 | 3.0 | 0.00 | 0.01 | 0.01 | 85 | 1012.2 |
| 20260509012004 | 49 | 184 | 0.0 | 0.0 | 0.00 | 0.01 | 0.01 | 84 | 1012.1 |
| 20260509011504 | 49 | 184 | 0.0 | 0.0 | 0.00 | 0.01 | 0.01 | 84 | 1012.1 |
| 20260509011004 | 49 | 184 | 0.0 | 0.0 | 0.00 | 0.01 | 0.01 | 84 | 1012.0 |
| 20260509010004 | 49 | 184 | 0.0 | 1.0 | 0.00 | 0.01 | 0.01 | 84 | 1012.2 |
| 20260509005004 | 49 | 184 | 0.0 | 0.0 | 0.00 | 0.01 | 0.01 | 82 | 1012.1 |
| 20260509004503 | 49 | 184 | 0.0 | 1.0 | 0.00 | 0.01 | 0.01 | 81 | 1012.1 |
| 20260509004004 | 49 | 184 | 0.0 | 1.0 | 0.00 | 0.01 | 0.01 | 82 | 1012.0 |
| 20260509003504 | 49 | 184 | 0.0 | 0.0 | 0.00 | 0.01 | 0.01 | 79 | 1012.0 |
| 20260509003004 | 49 | 184 | 0.0 | 0.0 | 0.00 | 0.01 | 0.01 | 80 | 1011.8 |
| 20260509002004 | 50 | 184 | 0.0 | 0.0 | 0.00 | 0.01 | 0.01 | 79 | 1011.7 |
| 20260509001504 | 50 | 184 | 0.0 | 0.0 | 0.00 | 0.01 | 0.01 | 78 | 1011.7 |
| 20260509001004 | 50 | 184 | 0.0 | 0.0 | 0.00 | 0.01 | 0.01 | 77 | 1011.7 |
| 20260509000503 | 50 | 184 | 0.0 | 0.0 | 0.00 | 0.01 | 0.01 | 76 | 1011.7 |
| 20260508235503 | 51 | 184 | 0.0 | 0.0 | 0.00 | 0.01 | 0.01 | 76 | 1011.6 |
| 20260508235004 | 51 | 184 | 1.0 | 3.0 | 0.00 | 0.01 | 0.01 | 77 | 1011.7 |
| 20260508234503 | 51 | 225 | 1.0 | 3.0 | 0.00 | 0.01 | 0.01 | 77 | 1011.9 |
| 20260508234004 | 51 | 293 | 0.0 | 1.0 | 0.00 | 0.01 | 0.01 | 76 | 1011.9 |
| 20260508233503 | 51 | 293 | 0.0 | 1.0 | 0.00 | 0.01 | 0.01 | 77 | 1011.9 |
| 20260508233004 | 52 | 293 | 0.0 | 2.0 | 0.00 | 0.01 | 0.01 | 76 | 1011.9 |
| 20260508232503 | 52 | 293 | 0.0 | 1.0 | 0.00 | 0.01 | 0.01 | 76 | 1011.9 |
| 20260508232004 | 52 | 293 | 0.0 | 1.0 | 0.00 | 0.01 | 0.01 | 74 | 1011.9 |
| 20260508231504 | 52 | 294 | 0.0 | 2.0 | 0.00 | 0.01 | 0.01 | 73 | 1011.9 |
| 20260508231004 | 52 | 293 | 1.0 | 3.0 | 0.00 | 0.01 | 0.01 | 72 | 1011.9 |
| 20260508230503 | 52 | 280 | 0.0 | 3.0 | 0.00 | 0.01 | 0.01 | 72 | 1011.9 |
| 20260508230004 | 52 | 308 | 1.0 | 3.0 | 0.00 | 0.01 | 0.01 | 72 | 1011.9 |
| 20260508225503 | 52 | 307 | 2.0 | 3.0 | 0.00 | 0.01 | 0.01 | 72 | 1011.8 |
| 20260508225004 | 52 | 300 | 1.0 | 6.0 | 0.00 | 0.01 | 0.01 | 71 | 1011.8 |
| 20260508224004 | 52 | 241 | 1.0 | 3.0 | 0.00 | 0.01 | 0.01 | 72 | 1011.8 |
| 20260508223504 | 52 | 251 | 1.0 | 7.0 | 0.00 | 0.01 | 0.01 | 72 | 1011.8 |
| 20260508223003 | 52 | 243 | 1.0 | 5.0 | 0.00 | 0.01 | 0.01 | 72 | 1011.8 |
| 20260508222504 | 52 | 248 | 2.0 | 3.0 | 0.00 | 0.01 | 0.01 | 71 | 1011.8 |
| 20260508222003 | 52 | 252 | 0.0 | 5.0 | 0.00 | 0.01 | 0.01 | 72 | 1011.7 |
| 20260508221504 | 52 | 217 | 1.0 | 3.0 | 0.00 | 0.01 | 0.01 | 72 | 1011.7 |
| 20260508221003 | 52 | 231 | 2.0 | 6.0 | 0.00 | 0.01 | 0.01 | 72 | 1011.7 |
| 20260508220503 | 52 | 228 | 2.0 | 6.0 | 0.00 | 0.01 | 0.01 | 71 | 1011.8 |
| 20260508220004 | 52 | 300 | 2.0 | 6.0 | 0.00 | 0.01 | 0.01 | 73 | 1011.8 |
| 20260508215503 | 52 | 202 | 4.0 | 10.0 | 0.00 | 0.01 | 0.01 | 73 | 1011.8 |
| 20260508215004 | 52 | 269 | 1.0 | 6.0 | 0.00 | 0.01 | 0.01 | 74 | 1011.9 |
| 20260508214503 | 52 | 251 | 1.0 | 7.0 | 0.00 | 0.01 | 0.01 | 74 | 1011.9 |
| 20260508214003 | 52 | 212 | 2.0 | 6.0 | 0.00 | 0.01 | 0.01 | 73 | 1012.0 |
| 20260508213503 | 52 | 260 | 1.0 | 6.0 | 0.00 | 0.01 | 0.01 | 74 | 1012.0 |
| 20260508213004 | 52 | 287 | 2.0 | 9.0 | 0.00 | 0.01 | 0.01 | 72 | 1012.0 |
| 20260508212503 | 52 | 292 | 3.0 | 10.0 | 0.00 | 0.01 | 0.01 | 72 | 1012.1 |
| 20260508212004 | 53 | 235 | 2.0 | 12.0 | 0.00 | 0.01 | 0.01 | 73 | 1012.0 |
| 20260508211004 | 53 | 229 | 3.0 | 9.0 | 0.00 | 0.01 | 0.01 | 71 | 1012.2 |
| 20260508210504 | 53 | 256 | 1.0 | 9.0 | 0.00 | 0.01 | 0.01 | 72 | 1012.1 |
| 20260508205504 | 53 | 264 | 4.0 | 12.0 | 0.00 | 0.01 | 0.01 | 70 | 1012.1 |
| 20260508205004 | 53 | 276 | 3.0 | 9.0 | 0.00 | 0.01 | 0.01 | 71 | 1012.4 |
| 20260508204503 | 53 | 231 | 2.0 | 9.0 | 0.00 | 0.01 | 0.01 | 70 | 1012.3 |
| 20260508204003 | 53 | 256 | 5.0 | 17.0 | 0.00 | 0.01 | 0.01 | 68 | 1012.3 |
| 20260508203503 | 54 | 277 | 5.0 | 13.0 | 0.00 | 0.01 | 0.01 | 68 | 1012.1 |
| 20260508203005 | 54 | 262 | 3.0 | 12.0 | 0.00 | 0.01 | 0.01 | 67 | 1012.1 |
| 20260508202503 | 54 | 245 | 5.0 | 15.0 | 0.00 | 0.01 | 0.01 | 67 | 1012.1 |
| 20260508202003 | 54 | 252 | 5.0 | 16.0 | 0.00 | 0.01 | 0.01 | 66 | 1012.2 |
| 20260508201503 | 54 | 272 | 5.0 | 18.0 | 0.00 | 0.01 | 0.01 | 65 | 1012.1 |
| 20260508200504 | 54 | 187 | 2.0 | 10.0 | 0.00 | 0.01 | 0.01 | 67 | 1012.0 |
| 20260508200004 | 54 | 228 | 3.0 | 14.0 | 0.00 | 0.01 | 0.01 | 67 | 1012.2 |
| 20260508194504 | 53 | 231 | 3.0 | 12.0 | 0.01 | 0.01 | 0.01 | 69 | 1012.4 |
| 20260508194004 | 53 | 308 | 3.0 | 10.0 | 0.01 | 0.01 | 0.01 | 69 | 1012.4 |
| 20260508193504 | 53 | 281 | 2.0 | 13.0 | 0.01 | 0.01 | 0.01 | 69 | 1012.6 |
| 20260508193004 | 53 | 219 | 4.0 | 12.0 | 0.01 | 0.01 | 0.01 | 70 | 1012.6 |
| 20260508192504 | 53 | 291 | 4.0 | 12.0 | 0.01 | 0.01 | 0.01 | 69 | 1012.6 |
| 20260508192004 | 53 | 275 | 3.0 | 12.0 | 0.01 | 0.01 | 0.01 | 70 | 1012.6 |
| 20260508191504 | 53 | 261 | 3.0 | 10.0 | 0.01 | 0.01 | 0.01 | 70 | 1012.6 |
| 20260508191003 | 54 | 273 | 4.0 | 9.0 | 0.01 | 0.01 | 0.01 | 69 | 1012.5 |
| 20260508190504 | 55 | 275 | 3.0 | 12.0 | 0.01 | 0.01 | 0.01 | 66 | 1012.5 |
| 20260508190004 | 56 | 268 | 6.0 | 18.0 | 0.01 | 0.01 | 0.01 | 64 | 1012.4 |
| 20260508185503 | 56 | 248 | 2.0 | 14.0 | 0.00 | 0.00 | 0.00 | 59 | 1012.3 |
| 20260508185003 | 56 | 283 | 5.0 | 18.0 | 0.00 | 0.00 | 0.00 | 57 | 1012.2 |
| 20260508184504 | 56 | 276 | 4.0 | 14.0 | 0.00 | 0.00 | 0.00 | 58 | 1012.2 |
| 20260508184004 | 56 | 251 | 5.0 | 12.0 | 0.00 | 0.00 | 0.00 | 57 | 1012.2 |
| 20260508183503 | 56 | 242 | 5.0 | 12.0 | 0.00 | 0.00 | 0.00 | 60 | 1012.3 |
| 20260508183003 | 55 | 279 | 4.0 | 12.0 | 0.00 | 0.00 | 0.00 | 60 | 1012.4 |
| 20260508182504 | 55 | 280 | 5.0 | 14.0 | 0.00 | 0.00 | 0.00 | 61 | 1012.5 |
| 20260508182003 | 54 | 253 | 1.0 | 13.0 | 0.00 | 0.00 | 0.00 | 62 | 1012.4 |
| 20260508181504 | 54 | 272 | 3.0 | 16.0 | 0.00 | 0.00 | 0.00 | 61 | 1012.5 |
| 20260508180504 | 55 | 237 | 3.0 | 14.0 | 0.00 | 0.00 | 0.00 | 60 | 1012.5 |
| 20260508180004 | 56 | 242 | 7.0 | 18.0 | 0.00 | 0.00 | 0.00 | 55 | 1012.4 |
| 20260508175504 | 56 | 178 | 3.0 | 9.0 | 0.00 | 0.00 | 0.00 | 53 | 1012.6 |
| 20260508175003 | 57 | 243 | 3.0 | 12.0 | 0.00 | 0.00 | 0.00 | 50 | 1012.5 |
| 20260508174504 | 57 | 218 | 4.0 | 14.0 | 0.00 | 0.00 | 0.00 | 50 | 1012.3 |
| 20260508174004 | 58 | 253 | 3.0 | 10.0 | 0.00 | 0.00 | 0.00 | 52 | 1012.4 |
| 20260508173504 | 58 | 316 | 3.0 | 10.0 | 0.00 | 0.00 | 0.00 | 53 | 1012.5 |
| 20260508172503 | 58 | 293 | 3.0 | 14.0 | 0.00 | 0.00 | 0.00 | 52 | 1012.6 |
| 20260508172004 | 58 | 255 | 6.0 | 15.0 | 0.00 | 0.00 | 0.00 | 53 | 1012.7 |
| 20260508171503 | 58 | 273 | 4.0 | 10.0 | 0.00 | 0.00 | 0.00 | 49 | 1012.7 |
| 20260508170504 | 58 | 239 | 5.0 | 13.0 | 0.00 | 0.00 | 0.00 | 52 | 1012.8 |
| 20260508170004 | 58 | 282 | 7.0 | 20.0 | 0.00 | 0.00 | 0.00 | 50 | 1012.8 |
| 20260508165504 | 58 | 264 | 6.0 | 14.0 | 0.00 | 0.00 | 0.00 | 50 | 1012.7 |
| 20260508164504 | 58 | 250 | 5.0 | 12.0 | 0.00 | 0.00 | 0.00 | 50 | 1012.8 |
| 20260508163003 | 57 | 297 | 3.0 | 12.0 | 0.00 | 0.00 | 0.00 | 51 | 1013.1 |
| 20260508162503 | 57 | 303 | 5.0 | 13.0 | 0.00 | 0.00 | 0.00 | 52 | 1013.0 |
| 20260508161504 | 56 | 280 | 2.0 | 8.0 | 0.00 | 0.00 | 0.00 | 55 | 1013.2 |
| 20260508161004 | 56 | 292 | 5.0 | 14.0 | 0.00 | 0.00 | 0.00 | 54 | 1013.3 |
| 20260508160003 | 56 | 220 | 4.0 | 15.0 | 0.00 | 0.00 | 0.00 | 56 | 1013.5 |
| 20260508155504 | 56 | 278 | 4.0 | 12.0 | 0.00 | 0.00 | 0.00 | 55 | 1013.3 |
| 20260508155004 | 55 | 159 | 3.0 | 10.0 | 0.00 | 0.00 | 0.00 | 56 | 1013.4 |
| 20260508154503 | 55 | 303 | 7.0 | 14.0 | 0.00 | 0.00 | 0.00 | 55 | 1013.5 |
| 20260508154003 | 54 | 258 | 5.0 | 10.0 | 0.00 | 0.00 | 0.00 | 55 | 1013.5 |
| 20260508153503 | 54 | 235 | 7.0 | 18.0 | 0.00 | 0.00 | 0.00 | 57 | 1013.6 |
| 20260508152503 | 53 | 280 | 4.0 | 12.0 | 0.00 | 0.00 | 0.00 | 56 | 1013.7 |
| 20260508152004 | 53 | 288 | 5.0 | 16.0 | 0.00 | 0.00 | 0.00 | 57 | 1013.7 |
| 20260508151503 | 52 | 239 | 6.0 | 13.0 | 0.00 | 0.00 | 0.00 | 59 | 1013.6 |
| 20260508151004 | 51 | 259 | 6.0 | 14.0 | 0.00 | 0.00 | 0.00 | 59 | 1013.6 |
| 20260508150004 | 52 | 273 | 6.0 | 13.0 | 0.00 | 0.00 | 0.00 | 56 | 1013.6 |
| 20260508145504 | 52 | 263 | 6.0 | 16.0 | 0.00 | 0.00 | 0.00 | 57 | 1013.6 |
| 20260508144504 | 51 | 280 | 3.0 | 14.0 | 0.00 | 0.00 | 0.00 | 58 | 1013.6 |
| 20260508144004 | 51 | 271 | 6.0 | 14.0 | 0.00 | 0.00 | 0.00 | 57 | 1013.6 |
| 20260508143504 | 51 | 230 | 3.0 | 9.0 | 0.00 | 0.00 | 0.00 | 58 | 1013.5 |
| 20260508143004 | 50 | 276 | 5.0 | 13.0 | 0.00 | 0.00 | 0.00 | 58 | 1013.5 |
| 20260508142004 | 50 | 254 | 3.0 | 12.0 | 0.00 | 0.00 | 0.00 | 59 | 1013.5 |
| 20260508141503 | 50 | 267 | 3.0 | 10.0 | 0.00 | 0.00 | 0.00 | 58 | 1013.6 |
| 20260508141003 | 49 | 281 | 2.0 | 12.0 | 0.00 | 0.00 | 0.00 | 60 | 1013.5 |
| 20260508140503 | 49 | 221 | 3.0 | 14.0 | 0.00 | 0.00 | 0.00 | 59 | 1013.6 |
| 20260508135503 | 49 | 293 | 3.0 | 8.0 | 0.00 | 0.00 | 0.00 | 61 | 1013.7 |
| 20260508135003 | 49 | 265 | 3.0 | 18.0 | 0.00 | 0.00 | 0.00 | 59 | 1013.7 |
| 20260508134504 | 49 | 284 | 3.0 | 12.0 | 0.00 | 0.00 | 0.00 | 60 | 1013.6 |
| 20260508133003 | 49 | 222 | 7.0 | 15.0 | 0.00 | 0.00 | 0.00 | 62 | 1013.7 |
| 20260508132504 | 49 | 266 | 2.0 | 8.0 | 0.00 | 0.00 | 0.00 | 63 | 1013.7 |
| 20260508132004 | 48 | 287 | 2.0 | 9.0 | 0.00 | 0.00 | 0.00 | 64 | 1013.7 |
| 20260508131003 | 48 | 208 | 5.0 | 12.0 | 0.00 | 0.00 | 0.00 | 64 | 1013.7 |
| 20260508130503 | 48 | 209 | 1.0 | 8.0 | 0.00 | 0.00 | 0.00 | 66 | 1013.8 |
| 20260508130004 | 47 | 235 | 3.0 | 12.0 | 0.00 | 0.00 | 0.00 | 63 | 1013.7 |
| 20260508125003 | 47 | 277 | 1.0 | 9.0 | 0.00 | 0.00 | 0.00 | 64 | 1013.8 |
| 20260508124503 | 46 | 258 | 4.0 | 13.0 | 0.00 | 0.00 | 0.00 | 63 | 1013.7 |